Location: Kelowna
(49.8880°N, 119.4960°W)
Time: 13:37:23
(UTC-08:00)

Envisat - Visible Passes

Search period start: 29 November 2023 00:00
Search period end: 09 December 2023 00:00
Orbit: 762 x 764 km, 98.3° (Epoch: 29 November)

Date Brightness Start Highest point End Pass type
(mag) Time Alt. Az. Time Alt. Az. Time Alt. Az.
29 Nov 5.5 04:04:07 10° N 04:04:16 11° N 04:04:16 11° N visible
30 Nov 5.3 05:06:34 10° N 05:06:38 10° N 05:06:38 10° N visible
01 Dec 5.5 04:28:47 10° N 04:28:51 10° N 04:28:51 10° N visible
